Location: Usti nad Labem
(50.6670°N, 14.0330°E)
Time: 20:38:52
(UTC+02:00)

ISS - Visible Passes

Search period start: 16 July 2018 00:00
Search period end: 26 July 2018 00:00
Orbit: 402 x 408 km, 51.6° (Epoch: 17 July)

Date Brightness Start Highest point End Pass type
(mag) Time Alt. Az. Time Alt. Az. Time Alt. Az.
16 Jul -2.9 00:59:18 34° ESE 00:59:18 34° ESE 01:01:32 10° E visible
16 Jul -3.7 02:31:55 13° W 02:34:47 77° N 02:38:06 10° E visible
16 Jul -3.8 04:08:05 10° WNW 04:11:23 90° NE 04:14:41 10° ESE visible
17 Jul -1.6 00:08:35 15° E 00:08:35 15° E 00:09:20 10° E visible
17 Jul -3.9 01:41:12 30° WSW 01:42:41 89° NNW 01:45:59 10° ENE visible
17 Jul -3.7 03:15:58 10° W 03:19:17 77° N 03:22:35 10° E visible
18 Jul -4.0 00:50:12 61° SW 00:50:36 72° SSE 00:53:53 10° ENE visible
18 Jul -3.6 02:23:51 10° W 02:27:09 72° N 02:30:27 10° E visible
18 Jul -3.8 04:00:24 10° WNW 04:03:40 63° SSW 04:06:56 10° ESE visible
18 Jul -3.7 23:58:10 47° S 23:58:33 51° SSE 00:01:46 10° E visible
19 Jul -3.7 01:31:43 10° W 01:35:01 74° N 01:38:19 10° E visible
19 Jul -3.9 03:08:17 10° WNW 03:11:35 83° SSW 03:14:53 10° ESE visible
19 Jul -3.2 23:03:31 10° SW 23:06:32 34° SSE 23:09:34 10° E visible
20 Jul -3.8 00:39:34 10° W 00:42:52 84° NNW 00:46:10 10° ENE visible
20 Jul -3.8 02:16:09 10° WNW 02:19:28 81° NNE 02:22:46 10° E visible
20 Jul -3.3 03:52:44 10° W 03:55:50 37° SSW 03:58:54 10° SE visible
20 Jul -2.6 22:11:54 10° SSW 22:14:34 23° SE 22:17:14 10° E visible
20 Jul -4.0 23:47:27 10° WSW 23:50:44 80° SSE 23:54:02 10° ENE visible
21 Jul -3.7 01:24:01 10° W 01:27:18 73° N 01:30:36 10° E visible
21 Jul -3.8 03:00:32 10° WNW 03:03:47 55° SSW 03:07:01 10° SE visible
21 Jul -3.8 22:55:24 10° WSW 22:58:38 58° SSE 23:01:53 10° ENE visible
22 Jul -3.6 00:31:50 10° W 00:35:07 73° N 00:38:25 10° E visible
22 Jul -4.0 02:08:23 10° WNW 02:11:41 76° SSW 02:14:58 10° ESE visible
22 Jul -2.6 03:45:14 10° W 03:47:50 21° SW 03:50:25 10° SSE visible
22 Jul -3.4 22:03:27 10° SW 22:06:33 40° SSE 22:09:40 10° E visible
22 Jul -3.8 23:39:38 10° W 23:42:56 79° N 23:46:14 10° E visible
23 Jul -3.9 01:16:14 10° WNW 01:19:31 86° N 01:20:45 36° E visible
23 Jul -1.5 02:52:50 10° W 02:53:14 13° W 02:53:14 13° W visible
23 Jul -3.9 22:47:28 10° WSW 22:50:45 87° SSE 22:54:03 10° ENE visible
24 Jul -3.7 00:24:03 10° W 00:27:20 75° N 00:29:02 26° E visible
24 Jul -1.8 02:00:35 10° W 02:01:37 18° W 02:01:37 18° W visible
24 Jul -3.9 21:55:21 10° WSW 21:58:36 66° SSE 22:01:52 10° ENE visible
24 Jul -3.6 23:31:51 10° W 23:35:07 72° N 23:38:00 13° E visible
25 Jul -3.0 01:08:22 10° WNW 01:10:37 39° W 01:10:37 39° W visible
25 Jul -3.7 22:39:37 10° W 22:42:53 76° N 22:46:11 10° E visible
